Location: El Gandul
(32.4984°N, 116.7135°W)
Time: 15:28:20
(UTC+00:00)

Cosmos 2242 Rocket - Pass Details

Date: 03 August 2024
Orbit: 616 x 647 km, 82.5° (Epoch: 08 September)

Event Time Altitude Azimuth Distance (km) Brightness Sun altitude
Rises 12:06:48 0° 349° (N) 2,893 7.3 -11.6°
Reaches altitude 10° 12:09:02 10° 346° (NNW) 1,987 6.4 -11.2°
Maximum altitude 12:13:22 62° 267° (W) 699 3.6 -10.3°
Drops below altitude 10° 12:17:43 10° 186° (S) 1,990 5.8 -9.5°
Sets 12:19:58 0° 183° (S) 2,898 6.7 -9.1°
